,,���z��,���z��,����,����
DATE,TIME,�z��l(kWh),���ђl(kWh),�z��l(kWh),���ђl(kWh)
2017/1/1,0:30,0,0,11768,6100
2017/1/1,1:00,0,0,11748,4000
2017/1/1,1:30,0,0,11698,3200
2017/1/1,2:00,0,0,11658,2500
2017/1/1,2:30,0,0,11643,1400
2017/1/1,3:00,0,0,11698,3400
2017/1/1,3:30,0,0,11793,3200
2017/1/1,4:00,0,0,11918,2300
2017/1/1,4:30,0,0,12068,3900
2017/1/1,5:00,0,0,12213,1900
2017/1/1,5:30,0,0,12343,2000
2017/1/1,6:00,0,0,12473,2200
2017/1/1,6:30,0,0,12608,1800
2017/1/1,7:00,0,0,12723,800
2017/1/1,7:30,0,0,12873,1200
2017/1/1,8:00,1067,7230,13053,600
2017/1/1,8:30,7548,17254,13263,800
2017/1/1,9:00,17564,27790,13463,1100
2017/1/1,9:30,29236,44656,13543,800
2017/1/1,10:00,39362,66980,13473,700
2017/1/1,10:30,50500,91024,13328,200
2017/1/1,11:00,59173,87906,13183,600
2017/1/1,11:30,72328,106886,13033,300
2017/1/1,12:00,77045,110193,12928,900
2017/1/1,12:30,73936,111340,12813,800
2017/1/1,13:00,70638,103039,12688,1600
2017/1/1,13:30,66743,82170,12603,4400
2017/1/1,14:00,62244,79438,12578,7500
2017/1/1,14:30,56296,75454,12613,13100
2017/1/1,15:00,47778,66536,12603,6100
2017/1/1,15:30,36940,41129,12458,8900
2017/1/1,16:00,26621,18772,12143,10100
2017/1/1,16:30,15635,7547,11723,13900
2017/1/1,17:00,5760,1308,11293,11900
2017/1/1,17:30,181,200,10943,10700
2017/1/1,18:00,0,0,10748,16600
2017/1/1,18:30,0,0,10728,14600
2017/1/1,19:00,0,0,10813,16300
2017/1/1,19:30,0,0,10978,16500
2017/1/1,20:00,0,0,11208,13800
2017/1/1,20:30,0,0,11453,10700
2017/1/1,21:00,0,0,11673,7800
2017/1/1,21:30,0,0,11818,7100
2017/1/1,22:00,0,0,11903,6400
2017/1/1,22:30,0,0,11973,6300
2017/1/1,23:00,0,0,12073,5700
2017/1/1,23:30,0,0,12203,6500
2017/1/2,0:00,0,0,12303,6700
2017/1/2,0:30,0,0,12313,5700
2017/1/2,1:00,0,0,12558,6400
2017/1/2,1:30,0,0,12713,6100
2017/1/2,2:00,0,0,12818,5800
2017/1/2,2:30,0,0,12913,6100
2017/1/2,3:00,0,0,13048,8300
2017/1/2,3:30,0,0,13393,11300
2017/1/2,4:00,0,0,13848,13800
2017/1/2,4:30,0,0,14468,12100
2017/1/2,5:00,0,0,15243,11400
2017/1/2,5:30,0,0,16138,12700
2017/1/2,6:00,0,0,17312,13200
2017/1/2,6:30,0,0,18677,13200
2017/1/2,7:00,0,0,20277,13800
2017/1/2,7:30,0,0,22147,13500
2017/1/2,8:00,935,11422,24001,13200
2017/1/2,8:30,8282,30046,26056,13300
2017/1/2,9:00,17806,51983,28026,14200
2017/1/2,9:30,28333,61507,29766,15300
2017/1/2,10:00,39667,80779,31670,18900
2017/1/2,10:30,50904,112529,33525,28800
2017/1/2,11:00,57489,100588,35245,31400
2017/1/2,11:30,63547,103991,36849,32600
2017/1/2,12:00,70014,82273,37979,33300
2017/1/2,12:30,65930,72053,38449,35700
2017/1/2,13:00,57150,72422,38424,24000
2017/1/2,13:30,48348,75027,38319,23400
2017/1/2,14:00,40937,87163,38504,27800
2017/1/2,14:30,34532,88946,39204,30200
2017/1/2,15:00,28313,74090,39689,29000
2017/1/2,15:30,22369,43010,39199,28400
2017/1/2,16:00,17826,18820,37774,21000
2017/1/2,16:30,11391,2368,35905,23700
2017/1/2,17:00,4773,702,34335,33400
2017/1/2,17:30,168,200,33630,33700
2017/1/2,18:00,0,0,33390,27800
2017/1/2,18:30,0,0,32380,25500
2017/1/2,19:00,0,0,31060,24300
2017/1/2,19:30,0,0,30380,17700
2017/1/2,20:00,0,0,30545,22700
2017/1/2,20:30,0,0,31005,21200
2017/1/2,21:00,0,0,31130,29200
2017/1/2,21:30,0,0,30330,31100
2017/1/2,22:00,0,0,29116,31600
2017/1/2,22:30,0,0,28446,30500
2017/1/2,23:00,0,0,28676,31800
2017/1/2,23:30,0,0,29446,26700
2017/1/3,0:00,0,0,30165,15100
2017/1/3,0:30,0,0,29231,19500
2017/1/3,1:00,0,0,27061,26900
2017/1/3,1:30,0,0,24386,18600
2017/1/3,2:00,0,0,22107,17400
2017/1/3,2:30,0,0,20762,20500
2017/1/3,3:00,0,0,20152,18500
2017/1/3,3:30,0,0,19712,15500
2017/1/3,4:00,0,0,19237,13100
2017/1/3,4:30,0,0,18752,9200
2017/1/3,5:00,0,0,18302,11400
2017/1/3,5:30,0,0,17912,11600
2017/1/3,6:00,0,0,17432,9700
2017/1/3,6:30,0,0,16338,8400
2017/1/3,7:00,0,0,14748,6700
2017/1/3,7:30,0,0,13103,6100
2017/1/3,8:00,599,4829,11798,5300
2017/1/3,8:30,4950,15805,10833,5300
2017/1/3,9:00,11810,27101,10133,6500
2017/1/3,9:30,20989,30685,9599,4700
2017/1/3,10:00,30993,47975,9154,3500
2017/1/3,10:30,41801,56198,8759,3600
2017/1/3,11:00,49091,48511,8349,4900
2017/1/3,11:30,55393,48310,7954,6400
2017/1/3,12:00,60972,43159,7594,5800
2017/1/3,12:30,66162,53395,7274,7800
2017/1/3,13:00,70059,48351,6974,13700
2017/1/3,13:30,69783,47033,6704,11100
2017/1/3,14:00,65668,64783,6459,8900
2017/1/3,14:30,57195,62449,6244,8200
2017/1/3,15:00,48516,48575,6004,6500
2017/1/3,15:30,38800,34520,5674,5100
2017/1/3,16:00,28800,21463,5334,4600
2017/1/3,16:30,17388,6285,5014,4200
2017/1/3,17:00,6508,1000,4684,3500
2017/1/3,17:30,277,200,4454,2800
2017/1/3,18:00,0,0,4249,1900
2017/1/3,18:30,0,0,4044,2400
2017/1/3,19:00,0,0,3849,2500
2017/1/3,19:30,0,0,3689,2400
2017/1/3,20:00,0,0,3634,1100
2017/1/3,20:30,0,0,3514,1100
2017/1/3,21:00,0,0,3255,1300
2017/1/3,21:30,0,0,2975,1800
2017/1/3,22:00,0,0,2770,2600
2017/1/3,22:30,0,0,2675,4700
2017/1/3,23:00,0,0,2505,4600
2017/1/3,23:30,0,0,2550,6800
2017/1/4,0:00,0,0,2325,8500
2017/1/4,0:30,0,0,7649,10400
2017/1/4,1:00,0,0,8094,12700
2017/1/4,1:30,0,0,8504,12800
2017/1/4,2:00,0,0,9109,20400
2017/1/4,2:30,0,0,9759,22100
2017/1/4,3:00,0,0,10493,23300
2017/1/4,3:30,0,0,10998,28800
2017/1/4,4:00,0,0,11533,39100
2017/1/4,4:30,0,0,12813,34800
2017/1/4,5:00,0,0,15088,38400
2017/1/4,5:30,0,0,17917,34500
2017/1/4,6:00,0,0,20567,26700
2017/1/4,6:30,0,0,21982,32900
2017/1/4,7:00,0,0,21742,39800
2017/1/4,7:30,0,0,20497,35400
2017/1/4,8:00,849,4409,19137,39300
2017/1/4,8:30,7632,4544,18232,40200
2017/1/4,9:00,15183,14256,17647,44600
2017/1/4,9:30,22264,18553,16827,46900
2017/1/4,10:00,28835,24184,15488,43200
2017/1/4,10:30,37794,22330,14123,33400
2017/1/4,11:00,47073,33352,12983,40200
2017/1/4,11:30,53681,30984,12198,50600
2017/1/4,12:00,54207,40122,11783,51700
2017/1/4,12:30,52406,32896,11668,49500
2017/1/4,13:00,49299,39121,11893,49900
2017/1/4,13:30,46679,42449,12453,50900
2017/1/4,14:00,45457,36140,13283,52300
2017/1/4,14:30,40352,28310,14138,54400
2017/1/4,15:00,33961,28647,14908,53100
2017/1/4,15:30,27471,21754,15418,52000
2017/1/4,16:00,20712,18247,15608,50300
2017/1/4,16:30,12829,7161,15533,46700
2017/1/4,17:00,4963,1605,15423,43100
2017/1/4,17:30,190,200,15358,39100
2017/1/4,18:00,0,0,15328,39300
2017/1/4,18:30,0,0,15088,39100
2017/1/4,19:00,0,0,14663,32900
2017/1/4,19:30,0,0,14313,31700
2017/1/4,20:00,0,0,14063,34900
2017/1/4,20:30,0,0,14028,33200
2017/1/4,21:00,0,0,13893,31500
2017/1/4,21:30,0,0,13738,29900
2017/1/4,22:00,0,0,13508,26900
2017/1/4,22:30,0,0,13323,25300
2017/1/4,23:00,0,0,13213,19600
2017/1/4,23:30,0,0,13158,18400
2017/1/5,0:00,0,0,13178,20700
2017/1/5,0:30,0,0,15073,21300
2017/1/5,1:00,0,0,15198,21600
2017/1/5,1:30,0,0,15348,21000
2017/1/5,2:00,0,0,15518,17700
2017/1/5,2:30,0,0,15678,19700
2017/1/5,3:00,0,0,15803,16600
2017/1/5,3:30,0,0,15928,14800
2017/1/5,4:00,0,0,16073,18900
2017/1/5,4:30,0,0,16223,21600
2017/1/5,5:00,0,0,16388,23500
2017/1/5,5:30,0,0,16548,22600
2017/1/5,6:00,0,0,16662,21900
2017/1/5,6:30,0,0,16602,24000
2017/1/5,7:00,0,0,16438,23700
2017/1/5,7:30,0,0,16193,28000
2017/1/5,8:00,925,7449,15948,26700
2017/1/5,8:30,7053,14889,15783,24600
2017/1/5,9:00,15473,27047,15733,26700
2017/1/5,9:30,24665,45477,15918,28200
2017/1/5,10:00,33461,53444,16278,26500
2017/1/5,10:30,42046,75514,16817,21000
2017/1/5,11:00,47132,69187,17377,26600
2017/1/5,11:30,50899,73669,18082,23200
2017/1/5,12:00,52947,108327,18642,20800
2017/1/5,12:30,53218,94158,19217,22800
2017/1/5,13:00,51293,69079,19462,26000
2017/1/5,13:30,47950,39365,19727,28200
2017/1/5,14:00,44354,52115,19917,31400
2017/1/5,14:30,38989,46940,20052,35200
2017/1/5,15:00,31460,35954,20172,29600
2017/1/5,15:30,23196,22399,20232,28700
2017/1/5,16:00,17197,17782,20337,26300
2017/1/5,16:30,10516,4009,20552,29100
2017/1/5,17:00,3925,904,20757,23600
2017/1/5,17:30,165,200,21072,19500
2017/1/5,18:00,0,0,21167,20700
2017/1/5,18:30,0,0,20667,18600
2017/1/5,19:00,0,0,19702,19500
2017/1/5,19:30,0,0,18742,17300
2017/1/5,20:00,0,0,17897,17100
2017/1/5,20:30,0,0,17142,16000
2017/1/5,21:00,0,0,16443,12700
2017/1/5,21:30,0,0,15813,10000
2017/1/5,22:00,0,0,15418,10600
2017/1/5,22:30,0,0,14873,9900
2017/1/5,23:00,0,0,14453,8600
2017/1/5,23:30,0,0,13943,8900
2017/1/6,0:00,0,0,13458,8200
2017/1/6,0:30,0,0,9849,8100
2017/1/6,1:00,0,0,9564,7400
2017/1/6,1:30,0,0,9259,7800
2017/1/6,2:00,0,0,9044,7800
2017/1/6,2:30,0,0,8839,8800
2017/1/6,3:00,0,0,8599,10000
2017/1/6,3:30,0,0,8299,9800
2017/1/6,4:00,0,0,7929,8700
2017/1/6,4:30,0,0,7564,7700
2017/1/6,5:00,0,0,7199,8000
2017/1/6,5:30,0,0,6864,9600
2017/1/6,6:00,0,0,6524,10000
2017/1/6,6:30,0,0,6109,9300
2017/1/6,7:00,0,0,5674,7400
2017/1/6,7:30,0,0,5199,5000
2017/1/6,8:00,1729,8438,4784,4000
2017/1/6,8:30,16909,15284,4459,2500
2017/1/6,9:00,36974,28528,4204,3700
2017/1/6,9:30,59231,46744,3879,3800
2017/1/6,10:00,77661,72924,3524,4100
2017/1/6,10:30,95953,90032,3075,4700
2017/1/6,11:00,108870,98497,2605,3800
2017/1/6,11:30,119972,111263,2280,3000
2017/1/6,12:00,125303,118455,2060,3200
2017/1/6,12:30,127813,124641,1895,2900
2017/1/6,13:00,122799,114863,1785,3800
2017/1/6,13:30,119530,103775,1745,3900
2017/1/6,14:00,104641,103144,1735,2900
2017/1/6,14:30,95284,96126,1740,2000
2017/1/6,15:00,83781,86291,1750,2300
2017/1/6,15:30,67923,56521,1745,2000
2017/1/6,16:00,51408,32783,1745,2200
2017/1/6,16:30,32015,13329,1745,2100
2017/1/6,17:00,13279,2828,1740,2300
2017/1/6,17:30,766,200,1700,2400
2017/1/6,18:00,0,0,1620,1600
2017/1/6,18:30,0,0,1565,1900
2017/1/6,19:00,0,0,1545,1900
2017/1/6,19:30,0,0,1535,1700
2017/1/6,20:00,0,0,1535,2500
2017/1/6,20:30,0,0,2090,1300
2017/1/6,21:00,0,0,2300,1700
2017/1/6,21:30,0,0,2470,2000
2017/1/6,22:00,0,0,2615,1100
2017/1/6,22:30,0,0,3150,300
2017/1/6,23:00,0,0,4569,0
2017/1/6,23:30,0,0,4539,0
2017/1/7,0:00,0,0,4324,100
2017/1/7,0:30,0,0,2085,400
2017/1/7,1:00,0,0,2795,1000
2017/1/7,1:30,0,0,2965,1100
2017/1/7,2:00,0,0,2950,1200
2017/1/7,2:30,0,0,2840,900
2017/1/7,3:00,0,0,2785,1100
2017/1/7,3:30,0,0,2765,800
2017/1/7,4:00,0,0,2735,700
2017/1/7,4:30,0,0,2780,300
2017/1/7,5:00,0,0,2805,100
2017/1/7,5:30,0,0,2855,400
2017/1/7,6:00,0,0,2905,1100
2017/1/7,6:30,0,0,2965,1700
2017/1/7,7:00,0,0,3010,2300
2017/1/7,7:30,0,9,3095,2100
2017/1/7,8:00,2010,19127,3185,2100
2017/1/7,8:30,19108,43478,3290,1700
2017/1/7,9:00,40724,71706,3344,1400
2017/1/7,9:30,63932,93543,3394,900
2017/1/7,10:00,83061,119703,3434,200
2017/1/7,10:30,96180,144837,3494,100
2017/1/7,11:00,112565,160491,3519,0
2017/1/7,11:30,120233,168476,3479,0
2017/1/7,12:00,123685,173658,3245,200
2017/1/7,12:30,127148,169020,2775,600
2017/1/7,13:00,123459,167749,2720,800
2017/1/7,13:30,115492,148274,2725,1500
2017/1/7,14:00,106361,134432,2720,2100
2017/1/7,14:30,95709,105810,2755,1800
2017/1/7,15:00,83707,86983,2905,1600
2017/1/7,15:30,66683,63598,3150,1700
2017/1/7,16:00,50306,38969,3444,1300
2017/1/7,16:30,30078,12667,3709,1300
2017/1/7,17:00,12333,2223,3884,1700
2017/1/7,17:30,744,200,4009,2100
2017/1/7,18:00,0,0,4059,1500
2017/1/7,18:30,0,0,4024,2300
2017/1/7,19:00,0,0,3924,2500
2017/1/7,19:30,0,0,3784,1900
2017/1/7,20:00,0,0,3629,1700
2017/1/7,20:30,0,0,3399,1100
2017/1/7,21:00,0,0,3085,1500
2017/1/7,21:30,0,0,2580,2700
2017/1/7,22:00,0,0,2005,4000
2017/1/7,22:30,0,0,2515,3000
2017/1/7,23:00,0,0,2700,4200
2017/1/7,23:30,0,0,2535,4400
2017/1/8,0:00,0,0,2770,4200
2017/1/8,0:30,0,0,3290,4600
2017/1/8,1:00,0,0,3994,4800
2017/1/8,1:30,0,0,4639,5400
2017/1/8,2:00,0,0,5234,5700
2017/1/8,2:30,0,0,5779,5100
2017/1/8,3:00,0,0,6329,5500
2017/1/8,3:30,0,0,6859,7500
2017/1/8,4:00,0,0,7254,7600
2017/1/8,4:30,0,0,7584,10000
2017/1/8,5:00,0,0,7999,9600
2017/1/8,5:30,0,0,8579,11600
2017/1/8,6:00,0,0,9204,13900
2017/1/8,6:30,0,0,9779,13200
2017/1/8,7:00,0,0,10313,12900
2017/1/8,7:30,0,3,10933,14300
2017/1/8,8:00,1769,8589,11633,14800
2017/1/8,8:30,15378,18496,12378,16000
2017/1/8,9:00,32671,30940,13018,12000
2017/1/8,9:30,47835,42985,13508,11000
2017/1/8,10:00,63356,54770,13943,12400
2017/1/8,10:30,81750,66763,14298,18600
2017/1/8,11:00,101036,69881,14588,25500
2017/1/8,11:30,115325,61820,14878,27000
2017/1/8,12:00,115596,60035,15213,24000
2017/1/8,12:30,110315,53348,15403,24000
2017/1/8,13:00,110225,44993,15388,20800
2017/1/8,13:30,98452,32601,15268,18300
2017/1/8,14:00,90789,28287,15108,17300
2017/1/8,14:30,87277,22127,15193,15200
2017/1/8,15:00,71303,19364,15128,11000
2017/1/8,15:30,52626,13030,14758,8600
2017/1/8,16:00,41541,8152,14298,8200
2017/1/8,16:30,28240,2543,13678,5800
2017/1/8,17:00,12990,600,13008,4400
2017/1/8,17:30,950,200,12313,4600
2017/1/8,18:00,0,0,11838,4000
2017/1/8,18:30,0,0,11203,4700
2017/1/8,19:00,0,0,10318,4700
2017/1/8,19:30,0,0,9239,4500
2017/1/8,20:00,0,0,8369,3400
2017/1/8,20:30,0,0,7644,2400
2017/1/8,21:00,0,0,6889,3300
2017/1/8,21:30,0,0,6194,3000
2017/1/8,22:00,0,0,5519,3000
2017/1/8,22:30,0,0,4864,2500
2017/1/8,23:00,0,0,4239,2300
2017/1/8,23:30,0,0,3624,1900
2017/1/9,0:00,0,0,3000,1800
2017/1/9,0:30,0,0,4569,1100
2017/1/9,1:00,0,0,4454,900
2017/1/9,1:30,0,0,4329,200
2017/1/9,2:00,0,0,4264,100
2017/1/9,2:30,0,0,4204,100
2017/1/9,3:00,0,0,4154,0
2017/1/9,3:30,0,0,4089,100
2017/1/9,4:00,0,0,4074,100
2017/1/9,4:30,0,0,4144,100
2017/1/9,5:00,0,0,4289,100
2017/1/9,5:30,0,0,4324,200
2017/1/9,6:00,0,0,3974,600
2017/1/9,6:30,0,0,3115,700
2017/1/9,7:00,0,0,2005,1500
2017/1/9,7:30,0,0,1780,2200
2017/1/9,8:00,1244,5734,1890,4200
2017/1/9,8:30,7570,12957,2055,6000
2017/1/9,9:00,15319,26865,2480,5500
2017/1/9,9:30,22900,44069,3065,6300
2017/1/9,10:00,28813,63118,4199,6200
2017/1/9,10:30,37185,77564,5209,5600
2017/1/9,11:00,42736,83150,6309,3500
2017/1/9,11:30,51718,85909,7549,2800
2017/1/9,12:00,58793,85858,8544,2900
2017/1/9,12:30,68115,67183,9394,4400
2017/1/9,13:00,67726,47844,9819,3900
2017/1/9,13:30,63054,30143,10518,4900
2017/1/9,14:00,54292,17075,11698,8900
2017/1/9,14:30,49818,10846,13468,11300
2017/1/9,15:00,44717,11972,15603,9500
2017/1/9,15:30,35150,11759,17082,5100
2017/1/9,16:00,23545,10248,17812,5300
2017/1/9,16:30,12545,6975,18272,4400
2017/1/9,17:00,5226,1313,18842,4700
2017/1/9,17:30,465,200,19977,3600
2017/1/9,18:00,0,0,21142,3500
2017/1/9,18:30,0,0,21887,3300
2017/1/9,19:00,0,0,22462,6800
2017/1/9,19:30,0,0,23966,11900
2017/1/9,20:00,0,0,26451,17000
2017/1/9,20:30,0,0,29046,24600
2017/1/9,21:00,0,0,30690,32100
2017/1/9,21:30,0,0,31105,36200
2017/1/9,22:00,0,0,30815,35900
2017/1/9,22:30,0,0,30260,38000
2017/1/9,23:00,0,0,29800,32400
2017/1/9,23:30,0,0,29191,35300
2017/1/10,0:00,0,0,28241,34300
2017/1/10,0:30,0,0,32980,30700
2017/1/10,1:00,0,0,32030,26000
2017/1/10,1:30,0,0,29990,23700
2017/1/10,2:00,0,0,27881,17900
2017/1/10,2:30,0,0,26566,13300
2017/1/10,3:00,0,0,25361,8800
2017/1/10,3:30,0,0,23057,5300
2017/1/10,4:00,0,0,19802,3500
2017/1/10,4:30,0,0,16233,2900
2017/1/10,5:00,0,0,13113,1600
2017/1/10,5:30,0,0,10733,1400
2017/1/10,6:00,0,0,9084,2400
2017/1/10,6:30,0,0,7829,2700
2017/1/10,7:00,0,0,6824,1300
2017/1/10,7:30,0,2,6084,2500
2017/1/10,8:00,1370,13510,5474,4600
2017/1/10,8:30,8979,33287,4829,5900
2017/1/10,9:00,19935,57915,4274,6400
2017/1/10,9:30,28520,77717,3734,6300
2017/1/10,10:00,37956,77099,3275,7100
2017/1/10,10:30,47957,85858,3295,13700
2017/1/10,11:00,57241,100873,3859,20100
2017/1/10,11:30,69464,114113,4574,34800
2017/1/10,12:00,82448,109892,5444,44500
2017/1/10,12:30,96084,89247,7499,47100
2017/1/10,13:00,101665,103176,10743,49100
2017/1/10,13:30,99165,86871,15233,37600
2017/1/10,14:00,78437,88931,21122,26000
2017/1/10,14:30,58760,54269,28176,34500
2017/1/10,15:00,42813,24940,33300,40000
2017/1/10,15:30,31861,14979,34290,43100
2017/1/10,16:00,21841,6508,32955,41100
2017/1/10,16:30,13652,2768,33350,43500
2017/1/10,17:00,7032,1415,37964,39100
2017/1/10,17:30,637,200,45903,48500
2017/1/10,18:00,0,0,51242,48800
2017/1/10,18:30,0,0,52067,51100
2017/1/10,19:00,0,0,50552,50100
2017/1/10,19:30,0,0,48483,50600
2017/1/10,20:00,0,0,46963,44200
2017/1/10,20:30,0,0,45493,38100
2017/1/10,21:00,0,0,43258,29100
2017/1/10,21:30,0,0,39689,32800
2017/1/10,22:00,0,0,35180,35600
2017/1/10,22:30,0,0,30930,38400
2017/1/10,23:00,0,0,27921,39000
2017/1/10,23:30,0,0,25956,36300
2017/1/11,0:00,0,0,24681,35200
2017/1/11,0:30,0,0,22612,32600
2017/1/11,1:00,0,0,21182,30800
2017/1/11,1:30,0,0,19937,30100
2017/1/11,2:00,0,0,18827,30800
2017/1/11,2:30,0,0,18042,28600
2017/1/11,3:00,0,0,17667,23600
2017/1/11,3:30,0,0,17967,18500
2017/1/11,4:00,0,0,18872,15000
2017/1/11,4:30,0,0,20267,11700
2017/1/11,5:00,0,0,21707,8800
2017/1/11,5:30,0,0,22877,5300
2017/1/11,6:00,0,0,23646,5900
2017/1/11,6:30,0,0,24006,7500
2017/1/11,7:00,0,0,24081,4000
2017/1/11,7:30,0,0,24021,4900
2017/1/11,8:00,627,3718,23936,2500
2017/1/11,8:30,4693,8833,23921,5000
2017/1/11,9:00,10281,14248,24041,14700
2017/1/11,9:30,16074,16559,24356,16600
2017/1/11,10:00,20745,39149,24871,16300
2017/1/11,10:30,25655,41294,25516,19000
2017/1/11,11:00,30114,51473,26236,22300
2017/1/11,11:30,33308,66633,26961,16000
2017/1/11,12:00,36545,57771,27606,13400
2017/1/11,12:30,34779,57498,28026,16700
2017/1/11,13:00,33754,72302,28206,19800
2017/1/11,13:30,32314,60087,28301,19500
2017/1/11,14:00,34234,60834,28386,17600
2017/1/11,14:30,29775,46674,28526,15900
2017/1/11,15:00,25295,48799,28641,15800
2017/1/11,15:30,20308,35448,28596,19600
2017/1/11,16:00,14731,17639,28361,15200
2017/1/11,16:30,9236,8692,28011,14900
2017/1/11,17:00,4242,1923,27656,13300
2017/1/11,17:30,393,200,27386,12900
2017/1/11,18:00,0,0,27086,12200
2017/1/11,18:30,0,0,26566,13400
2017/1/11,19:00,0,0,25746,15100
2017/1/11,19:30,0,0,24776,14200
2017/1/11,20:00,0,0,23776,19400
2017/1/11,20:30,0,0,22867,21900
2017/1/11,21:00,0,0,22062,25000
2017/1/11,21:30,0,0,21512,23800
2017/1/11,22:00,0,0,21117,32100
2017/1/11,22:30,0,0,20737,32600
2017/1/11,23:00,0,0,20402,40800
2017/1/11,23:30,0,0,20307,35300
2017/1/12,0:00,0,0,20662,37000
2017/1/12,0:30,0,0,24606,31300
2017/1/12,1:00,0,0,26026,25200
2017/1/12,1:30,0,0,28036,23600
2017/1/12,2:00,0,0,30405,23800
2017/1/12,2:30,0,0,32780,23500
2017/1/12,3:00,0,0,34750,29400
2017/1/12,3:30,0,0,35880,37000
2017/1/12,4:00,0,0,36295,35100
2017/1/12,4:30,0,0,36305,34400
2017/1/12,5:00,0,0,36230,38000
2017/1/12,5:30,0,0,36380,41300
2017/1/12,6:00,0,0,36609,35700
2017/1/12,6:30,0,0,36594,31500
2017/1/12,7:00,0,0,36330,34100
2017/1/12,7:30,0,0,35940,38600
2017/1/12,8:00,622,4023,35565,38700
2017/1/12,8:30,4602,8222,35310,35500
2017/1/12,9:00,10145,26184,35185,31300
2017/1/12,9:30,15425,34414,35130,32800
2017/1/12,10:00,19932,42267,35145,33300
2017/1/12,10:30,24388,59091,35190,32700
2017/1/12,11:00,28587,71895,35230,37400
2017/1/12,11:30,33446,64841,35245,37500
2017/1/12,12:00,35992,39894,35335,34800
2017/1/12,12:30,37431,41862,35540,36500
2017/1/12,13:00,36880,50271,35865,34800
2017/1/12,13:30,34046,35533,36290,33900
2017/1/12,14:00,30706,37549,36759,32300
2017/1/12,14:30,26670,22064,37204,34900
2017/1/12,15:00,22753,22290,37439,38300
2017/1/12,15:30,18547,22167,37494,43400
2017/1/12,16:00,14413,10943,37449,47700
2017/1/12,16:30,9405,5933,37379,45700
2017/1/12,17:00,4481,1414,37354,38300
2017/1/12,17:30,475,200,37444,36600
2017/1/12,18:00,0,0,37384,43100
2017/1/12,18:30,0,0,36849,47400
2017/1/12,19:00,0,0,35900,39500
2017/1/12,19:30,0,0,34955,33100
2017/1/12,20:00,0,0,34100,37600
2017/1/12,20:30,0,0,33265,37700
2017/1/12,21:00,0,0,32405,38500
2017/1/12,21:30,0,0,31370,33300
2017/1/12,22:00,0,0,30210,28100
2017/1/12,22:30,0,0,29031,36500
2017/1/12,23:00,0,0,27861,38200
2017/1/12,23:30,0,0,26746,39100
2017/1/13,0:00,0,0,25726,39000
2017/1/13,0:30,0,0,38089,38600
2017/1/13,1:00,0,0,36939,34400
2017/1/13,1:30,0,0,35370,30400
2017/1/13,2:00,0,0,33685,29400
2017/1/13,2:30,0,0,32090,29100
2017/1/13,3:00,0,0,30715,28800
2017/1/13,3:30,0,0,29441,30500
2017/1/13,4:00,0,0,28256,31500
2017/1/13,4:30,0,0,27221,30800
2017/1/13,5:00,0,0,26171,28800
2017/1/13,5:30,0,0,25101,28400
2017/1/13,6:00,0,0,24326,32000
2017/1/13,6:30,0,0,23931,29700
2017/1/13,7:00,0,0,23861,30500
2017/1/13,7:30,0,0,23891,30600
2017/1/13,8:00,1076,6815,23716,29800
2017/1/13,8:30,5671,12190,23441,29600
2017/1/13,9:00,11034,18244,23196,25600
2017/1/13,9:30,17416,14656,23281,24000
2017/1/13,10:00,23400,19494,23736,26300
2017/1/13,10:30,27385,33052,24436,21700
2017/1/13,11:00,30443,53881,25216,18100
2017/1/13,11:30,33218,54056,25916,18000
2017/1/13,12:00,39223,54526,26561,12600
2017/1/13,12:30,42075,44957,27421,15400
2017/1/13,13:00,42189,43407,28851,16200
2017/1/13,13:30,40542,45891,30465,13300
2017/1/13,14:00,37749,40782,32110,24800
2017/1/13,14:30,34135,52826,33620,27000
2017/1/13,15:00,29080,41652,34335,29100
2017/1/13,15:30,24105,26840,34570,32700
2017/1/13,16:00,17917,18807,34340,31400
2017/1/13,16:30,11916,5437,33660,35400
2017/1/13,17:00,6031,1519,32805,42100
2017/1/13,17:30,645,200,32115,46700
2017/1/13,18:00,0,0,31620,40200
2017/1/13,18:30,0,0,31020,24600
2017/1/13,19:00,0,0,30070,20100
2017/1/13,19:30,0,0,29081,17000
2017/1/13,20:00,0,0,27826,18000
2017/1/13,20:30,0,0,26871,13200
2017/1/13,21:00,0,0,26541,10000
2017/1/13,21:30,0,0,26731,12400
2017/1/13,22:00,0,0,25081,12500
2017/1/13,22:30,0,0,22927,13100
2017/1/13,23:00,0,0,23876,9200
2017/1/13,23:30,0,0,28566,6900
2017/1/14,0:00,0,0,34460,7800
2017/1/14,0:30,0,0,21962,7900
2017/1/14,1:00,0,0,19617,13500
2017/1/14,1:30,0,0,16742,10700
2017/1/14,2:00,0,0,14613,9800
2017/1/14,2:30,0,0,13483,9700
2017/1/14,3:00,0,0,12823,8400
2017/1/14,3:30,0,0,11953,8900
2017/1/14,4:00,0,0,10828,18600
2017/1/14,4:30,0,0,10003,15000
2017/1/14,5:00,0,0,10488,14600
2017/1/14,5:30,0,0,12073,27300
2017/1/14,6:00,0,0,13548,31100
2017/1/14,6:30,0,0,14363,36300
2017/1/14,7:00,0,0,14988,41800
2017/1/14,7:30,0,2,15793,44000
2017/1/14,8:00,1106,4635,17122,43900
2017/1/14,8:30,5486,7938,18712,43300
2017/1/14,9:00,12377,19344,20977,40200
2017/1/14,9:30,18998,19269,24286,40300
2017/1/14,10:00,22952,34213,29256,40400
2017/1/14,10:30,26164,36871,35255,37400
2017/1/14,11:00,32443,31460,41249,41200
2017/1/14,11:30,37030,24759,45928,43800
2017/1/14,12:00,38352,29498,48388,48100
2017/1/14,12:30,40136,26553,49533,50000
2017/1/14,13:00,41738,26054,50042,50500
2017/1/14,13:30,38771,22137,50312,48000
2017/1/14,14:00,39655,21723,50567,47400
2017/1/14,14:30,38034,16218,50772,46500
2017/1/14,15:00,36286,17304,50942,43800
2017/1/14,15:30,27961,11157,51052,46700
2017/1/14,16:00,22652,8028,51142,46400
2017/1/14,16:30,16162,3722,51192,49400
2017/1/14,17:00,7442,1207,51147,49000
2017/1/14,17:30,958,100,50987,50200
2017/1/14,18:00,0,0,50817,50900
2017/1/14,18:30,0,0,50387,52100
2017/1/14,19:00,0,0,49548,50700
2017/1/14,19:30,0,0,48093,47700
2017/1/14,20:00,0,0,46263,48100
2017/1/14,20:30,0,0,44458,44400
2017/1/14,21:00,0,0,42959,40800
2017/1/14,21:30,0,0,41799,41000
2017/1/14,22:00,0,0,40679,42200
2017/1/14,22:30,0,0,38929,44400
2017/1/14,23:00,0,0,36894,42400
2017/1/14,23:30,0,0,35285,42400
2017/1/15,0:00,0,0,34780,28900
2017/1/15,0:30,0,0,46993,36900
2017/1/15,1:00,0,0,46388,39700
2017/1/15,1:30,0,0,43019,38500
2017/1/15,2:00,0,0,36764,37200
2017/1/15,2:30,0,0,30785,36400
2017/1/15,3:00,0,0,27171,34700
2017/1/15,3:30,0,0,26531,34400
2017/1/15,4:00,0,0,28311,34800
2017/1/15,4:30,0,0,31625,33200
2017/1/15,5:00,0,0,35055,33900
2017/1/15,5:30,0,0,37329,29000
2017/1/15,6:00,0,0,38564,29800
2017/1/15,6:30,0,0,39519,27200
2017/1/15,7:00,0,0,40699,23400
2017/1/15,7:30,0,0,41884,23400
2017/1/15,8:00,1699,4505,43118,20800
2017/1/15,8:30,12515,9530,44048,21000
2017/1/15,9:00,23376,16365,44793,21100
2017/1/15,9:30,33792,25213,45173,25900
2017/1/15,10:00,39902,26448,45373,22700
2017/1/15,10:30,39121,34356,45293,18700
2017/1/15,11:00,56090,43733,45113,17400
2017/1/15,11:30,57154,38513,45028,23700